Location: ?
(35.4554°N, 139.3092°E)
Time: 21:10:56
(UTC+00:00)

Cosmos 1766 - Pass Details

Date: 21 April 2021
Orbit: 522 x 542 km, 82.5° (Epoch: 10 May)

Event Time Altitude Azimuth Distance (km) Brightness Sun altitude
Rises 18:10:37 0° 352° (N) 2,708 7.2 -21.4°
Reaches altitude 10° 18:12:47 10° 352° (N) 1,811 6.3 -21.1°
Maximum altitude 18:16:46 85° 265° (W) 549 3.1 -20.4°
Enters shadow 18:18:05 41° 179° (S) 792 3.8 -20.1°
